TimeEST,TemperatureF,Dew PointF,Humidity,Sea Level PressureIn,VisibilityMPH,Wind Direction,Wind SpeedMPH,Gust SpeedMPH,PrecipitationIn,Events,Conditions,WindDirDegrees,DateUTC
12:51 AM,48.0,42.1,80,30.10,5.0,Calm,Calm,-,N/A,,Haze,0,2013-12-05 05:51:00
1:24 AM,48.2,42.8,82,30.09,4.0,Calm,Calm,-,0.00,Rain,Light Rain,0,2013-12-05 06:24:00
1:51 AM,46.9,44.1,90,30.10,3.0,ENE,4.6,-,0.00,,Overcast,60,2013-12-05 06:51:00
2:20 AM,46.4,44.6,93,30.10,2.0,ENE,4.6,-,N/A,,Overcast,70,2013-12-05 07:20:00
2:29 AM,46.4,44.6,93,30.10,1.5,East,3.5,-,N/A,,Overcast,80,2013-12-05 07:29:00
2:51 AM,46.9,45.0,93,30.09,1.8,East,4.6,-,N/A,,Overcast,100,2013-12-05 07:51:00
3:51 AM,46.9,45.0,93,30.09,0.8,Calm,Calm,-,N/A,,Overcast,0,2013-12-05 08:51:00
4:20 AM,46.4,44.6,93,30.07,0.2,ESE,4.6,-,N/A,Fog,Fog,110,2013-12-05 09:20:00
4:51 AM,46.9,46.0,97,30.08,0.2,East,4.6,-,N/A,Fog,Fog,80,2013-12-05 09:51:00
5:51 AM,46.9,45.0,93,30.06,0.2,East,3.5,-,N/A,Fog,Fog,80,2013-12-05 10:51:00
6:13 AM,46.4,44.6,93,30.05,0.5,NE,3.5,-,N/A,Fog,Fog,40,2013-12-05 11:13:00
6:21 AM,46.4,44.6,93,30.05,0.2,ENE,4.6,-,N/A,Fog,Fog,60,2013-12-05 11:21:00
6:51 AM,46.9,45.0,93,30.06,0.5,ENE,3.5,-,N/A,,Mist,60,2013-12-05 11:51:00
6:58 AM,46.4,44.6,93,30.06,0.2,NE,4.6,-,N/A,Fog,Fog,40,2013-12-05 11:58:00
7:51 AM,46.9,46.0,97,30.06,0.2,ENE,4.6,-,N/A,Fog,Fog,60,2013-12-05 12:51:00
8:51 AM,48.0,46.9,96,30.07,0.2,ENE,4.6,-,N/A,,Overcast,70,2013-12-05 13:51:00
9:22 AM,50.0,48.2,94,30.07,0.5,Calm,Calm,-,N/A,,Overcast,0,2013-12-05 14:22:00
9:51 AM,50.0,48.0,93,30.08,0.5,Calm,Calm,-,N/A,,Overcast,0,2013-12-05 14:51:00
10:35 AM,50.0,48.2,94,30.06,0.5,North,3.5,-,N/A,Fog,Fog,360,2013-12-05 15:35:00
10:51 AM,51.1,48.9,92,30.06,0.5,Calm,Calm,-,N/A,,Overcast,0,2013-12-05 15:51:00
11:51 AM,52.0,50.0,93,30.01,0.5,Calm,Calm,-,N/A,Fog,Fog,0,2013-12-05 16:51:00
12:51 PM,53.1,51.1,93,30.00,0.2,Calm,Calm,-,N/A,,Overcast,0,2013-12-05 17:51:00
1:51 PM,53.1,51.1,93,29.99,0.2,Calm,Calm,-,N/A,,Overcast,0,2013-12-05 18:51:00
2:39 PM,53.6,51.8,94,29.98,0.5,Calm,Calm,-,N/A,,Overcast,0,2013-12-05 19:39:00
2:51 PM,54.0,52.0,93,29.98,0.5,Calm,Calm,-,N/A,,Overcast,0,2013-12-05 19:51:00
2:55 PM,53.6,51.8,94,29.97,1.0,Calm,Calm,-,N/A,,Overcast,0,2013-12-05 19:55:00
3:43 PM,55.4,51.8,88,29.96,3.0,Calm,Calm,-,N/A,,Overcast,0,2013-12-05 20:43:00
3:51 PM,55.0,52.0,89,29.97,3.0,South,3.5,-,N/A,,Overcast,170,2013-12-05 20:51:00
4:26 PM,53.6,51.8,94,30.00,2.0,NW,3.5,-,N/A,,Overcast,320,2013-12-05 21:26:00
4:51 PM,54.0,52.0,93,30.02,1.8,Calm,Calm,-,N/A,,Overcast,0,2013-12-05 21:51:00
5:05 PM,53.6,51.8,94,30.00,1.0,Calm,Calm,-,0.01,Rain,Light Rain,0,2013-12-05 22:05:00
5:09 PM,53.6,51.8,94,29.99,0.8,Calm,Calm,-,0.01,Rain,Light Rain,0,2013-12-05 22:09:00
5:16 PM,53.6,51.8,94,29.98,1.0,SE,5.8,-,0.01,Rain,Light Rain,140,2013-12-05 22:16:00
5:23 PM,53.6,51.8,94,29.99,1.2,Calm,Calm,-,0.01,Rain,Light Rain,0,2013-12-05 22:23:00
5:36 PM,53.6,51.8,94,29.99,1.5,Calm,Calm,-,0.02,,Overcast,0,2013-12-05 22:36:00
5:51 PM,54.0,53.1,97,29.99,1.5,Calm,Calm,-,0.02,,Overcast,0,2013-12-05 22:51:00
6:26 PM,53.6,51.8,94,29.97,1.2,Calm,Calm,-,N/A,,Overcast,0,2013-12-05 23:26:00
6:51 PM,53.1,52.0,96,29.98,0.5,Calm,Calm,-,N/A,Fog,Fog,0,2013-12-05 23:51:00
7:18 PM,51.8,51.8,100,29.98,0.2,North,3.5,-,N/A,Fog,Fog,350,2013-12-06 00:18:00
7:51 PM,52.0,51.1,97,29.99,0.5,Calm,Calm,-,0.00,Fog-Rain,Light Rain,0,2013-12-06 00:51:00
8:22 PM,53.6,51.8,94,29.97,1.5,Calm,Calm,-,0.00,,Overcast,0,2013-12-06 01:22:00
8:51 PM,53.1,51.1,93,29.97,0.8,Calm,Calm,-,0.00,,Overcast,0,2013-12-06 01:51:00
9:22 PM,51.8,51.8,100,29.96,0.2,Calm,Calm,-,N/A,Fog,Fog,0,2013-12-06 02:22:00
9:51 PM,53.1,51.1,93,29.95,0.2,Calm,Calm,-,N/A,Fog,Fog,0,2013-12-06 02:51:00
10:51 PM,52.0,51.1,97,29.95,0.2,North,3.5,-,N/A,Fog,Fog,350,2013-12-06 03:51:00
11:51 PM,53.1,52.0,96,29.93,0.2,ENE,3.5,-,N/A,Fog,Fog,60,2013-12-06 04:51:00